This demonstration page uses our WeatherBlox Daily Observations layout. Learn more.

Left ArrowRight Arrow

47.50024, -111.30081

Hourly Observations for March 13, 2015

Temp ( °F °C ) Dew Point ( °F °C ) Humidity (%) Winds ( mph kmh ) Pressure ( in mb ) Visibility ( mi km ) Precip ( " mm )
12:53 am 00:53 Clear 38 3.3 28 -2.2 68 68 SSW 14 22 30.35 1028 10 16 0.00 0.00
1:53 am 01:53 Clear 37 2.8 28 -2.2 70 70 SW 12 19 30.35 1028 10 16 0.00 0.00
2:53 am 02:53 Clear 33 0.6 27 -2.8 78 78 SSW 10 17 30.39 1029 10 16 0.00 0.00
3:53 am 03:53 Clear 37 2.8 28 -2.2 70 70 SSW 14 22 30.38 1029 10 16 0.00 0.00
4:53 am 04:53 Clear 36 2.2 28 -2.2 73 73 SSW 14 22 30.40 1029 10 16 0.00 0.00
5:53 am 05:53 Clear 35 1.7 28 -2.2 76 76 SSW 10 17 30.41 1030 10 16 0.00 0.00
6:53 am 06:53 Clear 34 1.1 27 -2.8 76 76 SSW 10 17 30.44 1031 10 16 0.00 0.00
7:53 am 07:53 Sunny 38 3.3 28 -2.2 68 68 S 12 19 30.45 1031 10 16 0.00 0.00
8:53 am 08:53 Sunny 42 5.6 29 -1.7 60 60 S 10 17 30.44 1031 10 16 0.00 0.00
9:53 am 09:53 Sunny 48 8.9 28 -2.2 46 46 SSW 12 19 30.43 1031 10 16 0.00 0.00
10:53 am 10:53 Sunny 52 11.1 29 -1.7 41 41 SSW 12 19 30.42 1030 10 16 0.00 0.00
11:53 am 11:53 Sunny 55 12.8 27 -2.8 34 34 SW 7 11 30.39 1029 10 16 0.00 0.00
12:53 pm 12:53 Sunny 58 14.4 24 -4.4 27 27 SW 10 17 30.36 1028 10 16 0.00 0.00
1:53 pm 13:53 Sunny 61 16.1 23 -5 23 23 SSW 7 11 30.33 1027 10 16 0.00 0.00
2:53 pm 14:53 Sunny 63 17.2 21 -6.1 20 20 SW 13 20 30.29 1026 10 16 0.00 0.00
3:53 pm 15:53 Sunny 64 17.8 19 -7.2 18 18 SSW 10 17 30.25 1024 10 16 0.00 0.00
4:53 pm 16:53 Sunny 65 18.3 21 -6.1 19 19 SSW 12 19 30.23 1024 10 16 0.00 0.00
5:53 pm 17:53 Sunny 62 16.7 20 -6.7 20 20 SW 7 11 30.22 1024 10 16 0.00 0.00
6:53 pm 18:53 Sunny 59 15 20 -6.7 22 22 SSW 7 11 30.21 1023 10 16 0.00 0.00
7:53 pm 19:53 Clear 49 9.4 19 -7.2 31 31 SSE 9 15 30.21 1023 10 16 0.00 0.00
8:53 pm 20:53 Clear 52 11.1 22 -5.6 31 31 SSW 14 22 30.17 1022 10 16 0.00 0.00
9:53 pm 21:53 Clear 50 10 22 -5.6 33 33 S 12 19 30.16 1021 10 16 0.00 0.00
10:53 pm 22:53 Clear 53 11.7 20 -6.7 27 27 S 16 26 30.11 1020 10 16 0.00 0.00
11:53 pm 23:53 Clear 53 11.7 18 -7.8 25 25 S 16 26 30.08 1019 10 16 0.00 0.00

Powered by AerisWeather